"TOA5","AWS1","CR1000","7964","CR1000.Std.14","CPU:AWS1_114.CR1","64363","TBL110"
"TIMESTAMP","RECORD","Wind_spd_WVc(1)","Wind_spd_WVc(2)","Air_Temp_Avg","Humidity_Avg","SW_upper_Wm2_Avg","Rain_Tot","Press_Avg","Issui_Tot","Depth_cm","SR50A_Raw","Quality","Ground_Temp_Avg(1)","Ground_Temp_Avg(2)","SW_lower_Wm2_Avg","Albedo_Avg","SWC_per(1)","SWC_per(2)","Period(1)","Period(2)"
"TS","RN","","","","","","","","","","","","","","","","","","",""
"","","WVc","WVc","Avg","Avg","Avg","Tot","Avg","Tot","Smp","Smp","Smp","Avg","Avg","Avg","Avg","Smp","Smp","Smp","Smp"
"2017-12-27 00:00:00",320605,0.707,212.4,-7.342,93.8,0.2360588,0,854.7767,0,41.23,2.806,174,2.269,3.018,0,0,52.77,60.62,33.98,35.82
"2017-12-27 00:10:00",320606,0.426,310.9,-7.418,94,0.2360588,0.5,854.7937,0,41.45,2.804,258,2.25,3.016,0,0,52.83,60.62,33.99,35.82
"2017-12-27 00:20:00",320607,0.443,207.1,-7.439,94.2,0.1809784,0,854.8147,0,41.35,2.805,193,2.225,3.016,0,0,52.77,60.62,33.98,35.82
"2017-12-27 00:30:00",320608,0.338,166.8,-7.451,94.2,0.08655489,0,854.8443,0,41.57,2.803,193,2.206,3.016,0,0,52.77,60.62,33.98,35.82
"2017-12-27 00:40:00",320609,0.455,145.7,-7.563,94.1,0.1809784,0,854.7641,0,41.42,2.805,185,2.175,3.016,0,0,52.77,60.62,33.98,35.82
"2017-12-27 00:50:00",320610,0.577,71.26,-7.663,93.7,0.2360588,0.5,854.5743,0,41.51,2.805,186,2.176,3.016,0,0,52.77,60.62,33.98,35.82
"2017-12-27 01:00:00",320611,0.34,172.3,-7.73,93.6,0.1770441,0,854.5596,0,41.31,2.807,198,2.17,3.018,0,0,52.77,60.62,33.98,35.82
"2017-12-27 01:10:00",320612,0.3,220.4,-7.769,93.6,0.04327745,0,854.5216,0,41.35,2.807,194,2.161,3.016,0,0,52.77,60.62,33.98,35.82
"2017-12-27 01:20:00",320613,0.56,226.5,-7.877,93.5,0.1809784,0,854.4795,0,41.69,2.804,191,2.157,3.017,0,0,52.77,60.62,33.98,35.82
"2017-12-27 01:30:00",320614,0.439,159.9,-7.973,93.4,0.2360588,0,854.3066,0,41.44,2.807,174,2.185,3.033,0,0,52.72,60.62,33.96,35.82
"2017-12-27 01:40:00",320615,0.477,178.5,-8.02,93.6,0.1062265,0,854.3108,0,41.44,2.807,176,2.196,3.054,0,0,52.72,60.62,33.96,35.82
"2017-12-27 01:50:00",320616,0.36,162.4,-7.972,93.9,0,0,854.3741,0,41.4,2.807,200,2.193,3.058,0.1972582,0,52.77,60.62,33.98,35.82
"2017-12-27 02:00:00",320617,0.646,153.3,-7.95,94,0,0,854.2454,0.5,41.84,2.803,193,2.193,3.059,0.1707042,0,52.77,60.62,33.98,35.82
"2017-12-27 02:10:00",320618,0.446,131.3,-7.939,93.9,0,0,854.2371,0,42.03,2.801,171,2.194,3.054,0.1403568,0,52.72,60.62,33.96,35.82
"2017-12-27 02:20:00",320619,0.44,116.7,-7.987,93.9,0.003934314,0,854.2475,0,42.11,2.8,192,2.194,3.05,0.003793427,0,52.77,60.62,33.98,35.82
"2017-12-27 02:30:00",320620,0.191,166.9,-7.931,94.6,0,0,854.2728,0,41.99,2.801,187,2.194,3.047,0.1441502,0,52.77,60.62,33.98,35.82
"2017-12-27 02:40:00",320621,0.303,207.7,-7.897,94.8,0,0,854.4774,0,41.55,2.805,194,2.194,3.03,0.2124319,0,52.72,60.56,33.96,35.81
"2017-12-27 02:50:00",320622,0.442,207.4,-7.854,94.4,0,0,854.4858,0.5,42.17,2.799,175,2.194,3.027,0.1100094,0,52.77,60.62,33.98,35.82
"2017-12-27 03:00:00",320623,0.576,128.4,-7.918,93.6,0.09835921,0.5,854.4963,0,42.57,2.796,179,2.197,3.032,0.06448876,0,52.77,60.62,33.98,35.82
"2017-12-27 03:10:00",320624,0.528,163.3,-8.16,92.5,0.2360622,0,854.4078,0,42.34,2.799,170,2.197,3,0,0,52.72,60.62,33.96,35.82
"2017-12-27 03:20:00",320625,0.667,156.2,-8.33,92.4,0.236072,0,854.5069,0,42.3,2.8,170,2.208,2.996,0,0,52.72,60.56,33.96,35.81
"2017-12-27 03:30:00",320626,0.61,224,-8.48,92.6,0.236075,0,854.4879,0,41.06,2.814,203,2.213,2.995,0,0,52.77,60.56,33.98,35.81
"2017-12-27 03:40:00",320627,0.51,234.8,-8.68,92.6,0.2360761,0,854.4942,0.5,43,2.795,221,2.205,2.995,0,0,52.77,60.56,33.98,35.81
"2017-12-27 03:50:00",320628,0.379,229,-8.67,92.7,0.2360802,0,854.5216,0,43.58,2.789,244,2.19,2.998,0,0,52.72,60.56,33.96,35.81
"2017-12-27 04:00:00",320629,0.113,139.8,-8.66,92.6,0.2360885,0,854.5217,0.5,43.68,2.788,196,2.186,3.009,0,0,52.72,60.62,33.96,35.82
"2017-12-27 04:10:00",320630,0.084,283,-8.6,92.7,0.09443821,0.5,854.5447,0,44.04,2.784,200,2.173,3.019,0.1517645,0.096,52.72,60.56,33.96,35.81
"2017-12-27 04:20:00",320631,0.314,299.7,-8.5,92.8,0,0,854.7039,0.5,44.95,2.774,237,2.2,3.037,0.227659,0,52.72,60.56,33.96,35.81
"2017-12-27 04:30:00",320632,0.128,275.8,-8.44,92.8,0,0,854.598,0,42.62,2.797,205,2.213,3.044,0.2200773,0,52.72,60.56,33.96,35.81
"2017-12-27 04:40:00",320633,0.457,274.5,-8.5,92.6,0,0.5,854.5549,0,44.85,2.775,173,2.197,3.049,0.1176296,0,52.72,60.56,33.96,35.81
"2017-12-27 04:50:00",320634,0.152,61.54,-8.49,92.7,0,0,854.5497,0.5,45.26,2.771,193,2.215,3.058,0.09107082,0,52.72,60.56,33.96,35.81
"2017-12-27 05:00:00",320635,0.338,202.8,-8.52,92.7,0,0.5,854.5583,0,44.77,2.776,208,2.222,3.065,0.04553637,0,52.77,60.56,33.98,35.81
"2017-12-27 05:10:00",320636,0.35,5.421,-8.57,92.8,0,0,854.5762,0,45.45,2.769,196,2.222,3.07,0.0493313,0,52.77,60.62,33.98,35.82
"2017-12-27 05:20:00",320637,0.133,340.3,-8.5,92.8,0,0.5,854.5849,0.5,45.12,2.772,205,2.231,3.079,0.09486803,0,52.77,60.56,33.98,35.81
"2017-12-27 05:30:00",320638,0.335,206.1,-8.51,92.8,0,0,854.6522,0,43.7,2.787,256,2.241,3.093,0.003794723,0,52.72,60.56,33.96,35.81
"2017-12-27 05:40:00",320639,0.404,293,-8.56,92.9,0.007871317,0,854.806,0,45.42,2.77,202,2.246,3.099,0.01517889,0,52.77,60.56,33.98,35.81
"2017-12-27 05:50:00",320640,0.442,316.2,-8.6,93.1,0.03148527,0,855.0202,0,45.89,2.765,176,2.24,3.095,0.007589447,0,52.72,60.62,33.96,35.82
"2017-12-27 06:00:00",320641,0.283,20.09,-8.6,92.8,0.01180698,0.5,855.0945,0,45.82,2.766,198,2.239,3.098,0,0,52.72,60.56,33.96,35.81
"2017-12-27 06:10:00",320642,0.454,2.234,-8.69,92.8,0.2125255,0,855.2049,0,45.57,2.769,205,2.239,3.096,0,0,52.72,60.62,33.96,35.82
"2017-12-27 06:20:00",320643,0.39,244.3,-8.68,92.9,0.03935658,0,855.3454,0,46.16,2.763,194,2.24,3.103,0.007589447,0,52.72,60.56,33.96,35.81
"2017-12-27 06:30:00",320644,0.543,112.1,-8.72,92.7,0.149555,0,855.329,0,46.04,2.764,173,2.24,3.104,0,0,52.72,60.56,33.96,35.81
"2017-12-27 06:40:00",320645,0.484,250.1,-8.75,92.6,0.09839145,0.5,855.3651,0.5,46.11,2.763,200,2.24,3.105,0.05692085,0.112,52.72,60.56,33.96,35.81
"2017-12-27 06:50:00",320646,0.324,82.7,-8.72,92.5,0.1101984,0,855.4373,0,44.88,2.776,246,2.24,3.105,0.2162992,0.434,52.72,60.56,33.96,35.81
"2017-12-27 07:00:00",320647,0.241,205.5,-8.68,92.5,0.2361395,0,855.4648,0.5,46.84,2.756,233,2.24,3.105,0.5730032,2.427,52.72,60.56,33.96,35.81
"2017-12-27 07:10:00",320648,0.255,54.27,-8.75,92.4,0.4801503,0,855.5002,0,47.43,2.75,194,2.24,3.105,1.536863,3.375,52.72,60.56,33.96,35.81
"2017-12-27 07:20:00",320649,0.083,147.5,-8.66,92.6,0.7084185,0.5,855.5949,0.5,47.39,2.75,181,2.24,3.105,2.474159,3.493,52.72,60.56,33.96,35.81
"2017-12-27 07:30:00",320650,0.031,138.8,-8.63,92.4,0.8186169,0,855.6255,0,47.45,2.749,220,2.24,3.105,3.009216,3.723,52.72,60.56,33.96,35.81
"2017-12-27 07:40:00",320651,0.121,229.6,-8.59,92.5,1.538842,0.5,855.649,0.5,47.92,2.744,200,2.24,3.103,5.358149,3.502,52.72,60.56,33.96,35.81
"2017-12-27 07:50:00",320652,0.036,183,-8.55,92.5,3.054071,0,855.6258,0,48.48,2.738,207,2.24,3.105,11.03126,3.622,52.72,60.56,33.96,35.81
"2017-12-27 08:00:00",320653,0.082,297.9,-8.46,92.5,2.924194,0,855.6237,0.5,48.9,2.734,196,2.24,3.103,10.62523,3.639,52.77,60.56,33.98,35.81
"2017-12-27 08:10:00",320654,0.171,335.7,-8.54,92.4,2.640827,0.5,855.6785,0.5,49.67,2.726,356,2.24,3.105,9.020057,3.433,52.66,60.56,33.95,35.81
"2017-12-27 08:20:00",320655,0.17,271.3,-8.46,92.6,4.254447,0,855.8641,0.5,50.49,2.717,197,2.24,3.105,14.79563,3.467,52.72,60.56,33.96,35.81
"2017-12-27 08:30:00",320656,0.16,294.4,-8.41,92.3,4.061599,0.5,855.9738,0,51,2.712,194,2.24,3.104,14.39339,3.541,52.72,60.56,33.96,35.81
"2017-12-27 08:40:00",320657,0.38,230.5,-8.37,92.7,7.85951,0,855.9295,0.5,50.96,2.712,202,2.24,3.103,28.61222,3.629,52.66,60.56,33.95,35.81
"2017-12-27 08:50:00",320658,0.144,311.2,-8.27,92.8,10.46885,0,856.0007,0,51.23,2.709,206,2.233,3.079,39.31713,3.754,52.72,60.5,33.96,35.79
"2017-12-27 09:00:00",320659,0.215,295.2,-8.25,92.8,9.953279,0.5,856.1229,0,51.85,2.702,185,2.215,3.063,37.33249,3.75,52.72,60.56,33.96,35.81
"2017-12-27 09:10:00",320660,0.421,306.8,-8.16,93,9.067756,0.5,856.1556,0.5,52.35,2.697,315,2.201,3.062,33.24557,3.665,52.72,60.56,33.96,35.81
"2017-12-27 09:20:00",320661,0.459,312.2,-8.24,92.7,9.016593,0,856.3682,0,51.58,2.705,208,2.203,3.062,32.38037,3.588,52.72,60.56,33.96,35.81
"2017-12-27 09:30:00",320662,0.63,7.873,-8.06,93.4,18.23784,0.5,856.411,0.5,51.57,2.704,211,2.201,3.062,36.18648,2.27,52.72,60.56,33.96,35.81
"2017-12-27 09:40:00",320663,0.553,52.16,-7.958,93.1,21.3467,0,856.6837,0,53.45,2.685,187,2.216,3.059,36.40983,1.689,52.72,60.56,33.96,35.81
"2017-12-27 09:50:00",320664,0.833,303.6,-8.02,92.1,59.79706,0,856.7979,2.5,54.23,2.677,174,2.252,3.056,75.50191,1.29,52.72,60.56,33.96,35.81
"2017-12-27 10:00:00",320665,0.623,82.1,-7.914,92.4,79.09211,0,856.804,0.5,54.59,2.673,189,2.271,3.052,90.80447,1.149,52.72,60.56,33.96,35.81
"2017-12-27 10:10:00",320666,0.451,311,-7.986,92.3,38.61935,0,856.7936,0,54.33,2.676,188,2.249,3.039,53.1189,1.371,52.72,60.5,33.96,35.79
"2017-12-27 10:20:00",320667,0.396,201.9,-7.988,92.6,27.59465,0.5,856.7964,0.5,54.36,2.676,192,2.22,2.996,41.04597,1.489,52.72,60.56,33.96,35.81
"2017-12-27 10:30:00",320668,0.366,113.8,-7.982,92.5,36.39491,0,856.7935,0,55.15,2.668,197,2.189,2.971,62.39856,1.712,52.72,60.5,33.96,35.79
"2017-12-27 10:40:00",320669,0.386,328.3,-8.07,92.1,39.8597,0.5,856.7774,0.5,54.57,2.674,207,2.163,2.982,77.23262,1.934,52.66,60.56,33.95,35.81
"2017-12-27 10:50:00",320670,0.364,276.9,-8.08,92.4,35.2715,0.5,856.7318,0,55.79,2.661,228,2.155,2.983,74.05985,2.098,52.72,60.56,33.96,35.81
"2017-12-27 11:00:00",320671,0.308,292.2,-7.928,92.6,37.39972,0,856.8178,0.5,54.26,2.676,242,2.153,3.003,80.7244,2.151,52.72,60.5,33.96,35.79
"2017-12-27 11:10:00",320672,0.536,215.4,-7.903,90.7,56.98074,0.5,856.7609,0,55.93,2.66,197,2.152,3.015,125.5474,2.2,52.72,60.5,33.96,35.79
"2017-12-27 11:20:00",320673,0.662,169.9,-7.922,90.2,68.30367,0.5,856.5753,0,56.08,2.658,189,2.19,3.012,152.2758,2.226,52.72,60.56,33.96,35.81
"2017-12-27 11:30:00",320674,0.617,202.4,-7.98,90.1,49.29305,0,856.5394,0,56.22,2.657,173,2.243,2.987,108.401,2.196,52.72,60.5,33.96,35.79
"2017-12-27 11:40:00",320675,0.691,234.2,-8.14,89.9,43.64337,0.5,856.3961,0,56.5,2.655,192,2.254,2.985,95.84858,2.193,52.72,60.56,33.96,35.81
"2017-12-27 11:50:00",320676,0.577,176.1,-7.957,90.5,50.67006,0,856.2928,0.5,56.43,2.654,170,2.293,2.987,117.0994,2.308,52.72,60.56,33.96,35.81
"2017-12-27 12:00:00",320677,0.388,218.2,-7.939,90.5,35.8849,0.5,856.3118,0,55.88,2.66,208,2.297,2.997,84.07377,2.339,52.66,60.56,33.95,35.81
"2017-12-27 12:10:00",320678,0.218,278.7,-8,90.9,33.52431,0,856.297,0,56.69,2.652,207,2.305,3.021,80.56864,2.4,52.72,60.5,33.96,35.79
"2017-12-27 12:20:00",320679,0.321,172.1,-7.924,91.1,31.56895,0.5,856.2883,0,56.59,2.652,181,2.292,3.02,77.92082,2.467,52.72,60.5,33.96,35.79
"2017-12-27 12:30:00",320680,0.791,8.66,-7.826,90.8,47.6363,0,856.1429,0.5,56.93,2.649,192,2.265,3.022,122.925,2.576,52.72,60.5,33.96,35.79
"2017-12-27 12:40:00",320681,0.4,185.9,-7.792,90.5,36.97026,0.5,856.1973,0,56.69,2.651,195,2.238,3.014,96.85631,2.619,52.72,60.5,33.96,35.79
"2017-12-27 12:50:00",320682,0.473,203.7,-7.771,90.4,38.07904,0,856.1896,0,57.09,2.647,195,2.24,3.009,100.9096,2.647,52.72,60.5,33.96,35.79
"2017-12-27 13:00:00",320683,0.602,187.1,-7.979,90.3,25.39003,0.5,856.1191,0,57.26,2.647,200,2.241,2.996,65.19622,2.566,52.72,60.5,33.96,35.79
"2017-12-27 13:10:00",320684,0.729,230.2,-8.2,90.8,26.42357,0,856.1131,0.5,57.8,2.642,172,2.227,2.992,69.90437,2.642,52.72,60.5,33.96,35.79
"2017-12-27 13:20:00",320685,0.379,234.6,-8.2,91.2,26.05277,0,856.2051,0.5,57.86,2.641,258,2.234,2.985,74.06613,2.837,52.66,60.5,33.95,35.79
"2017-12-27 13:30:00",320686,0.617,239.7,-8.17,91.3,19.87667,0.5,856.3297,0,58.69,2.633,172,2.238,2.985,58.36703,2.935,52.72,60.5,33.96,35.79
"2017-12-27 13:40:00",320687,0.533,241.5,-7.931,91.8,55.18501,0,856.4662,0,58.59,2.631,172,2.232,2.983,174.737,3.16,52.72,60.5,33.96,35.79
"2017-12-27 13:50:00",320688,0.56,147.3,-7.597,90.2,54.2921,0.5,856.4788,0,58.57,2.63,196,2.218,2.972,174.1909,3.206,52.66,60.5,33.95,35.79
"2017-12-27 14:00:00",320689,0.574,65.91,-7.406,89.7,52.04206,0,856.4619,0,58.76,2.628,183,2.194,2.972,165.0693,3.168,52.72,60.5,33.96,35.79
"2017-12-27 14:10:00",320690,0.512,177.6,-7.573,89.1,29.78132,0,856.5441,0,58.74,2.63,174,2.191,2.97,90.90446,3.05,52.72,60.5,33.96,35.79
"2017-12-27 14:20:00",320691,0.531,107,-7.85,89.9,18.93912,0.5,856.738,0.5,58.34,2.635,170,2.175,2.953,55.0672,2.899,52.72,60.5,33.96,35.79
"2017-12-27 14:30:00",320692,0.371,153.3,-8.04,90.9,17.44732,0,856.9066,0.5,58.01,2.639,195,2.166,2.938,51.68869,2.948,52.66,60.5,33.95,35.79
"2017-12-27 14:40:00",320693,0.271,226.3,-7.95,91.6,20.88042,0,856.9678,0,58.6,2.632,203,2.171,2.931,65.43792,3.131,52.72,60.5,33.96,35.79
"2017-12-27 14:50:00",320694,0.283,27.92,-7.81,91.2,12.63276,0.5,856.9362,0,58.84,2.63,185,2.169,2.929,39.95029,3.166,52.66,60.5,33.95,35.79
"2017-12-27 15:00:00",320695,0.443,324,-8.01,91.6,15.25995,0,856.9488,0,59.23,2.626,194,2.192,2.928,49.20678,3.218,52.72,60.5,33.96,35.79
"2017-12-27 15:10:00",320696,0.204,41.23,-8.03,92,6.807976,0,856.8898,0.5,58.97,2.63,194,2.179,2.931,20.75435,3.03,52.72,60.5,33.96,35.79
"2017-12-27 15:20:00",320697,0.108,100.3,-8.1,92.6,8.117656,0.5,856.9382,0,59.04,2.629,172,2.203,2.937,25.96095,3.198,52.72,60.5,33.96,35.79
"2017-12-27 15:30:00",320698,0.178,18.5,-8.17,93,7.834481,0,856.9109,0,58.97,2.63,171,2.209,2.964,25.58553,3.263,52.72,60.5,33.96,35.79
"2017-12-27 15:40:00",320699,0.253,307.3,-8.18,93.7,5.266254,0,856.9193,0,59.36,2.626,194,2.216,2.986,16.6854,3.144,52.72,60.5,33.96,35.79
"2017-12-27 15:50:00",320700,0.275,286.3,-8.19,93.8,3.248708,0,856.9678,0,58.71,2.633,200,2.226,2.98,9.378154,2.879,52.72,60.5,33.96,35.79
"2017-12-27 16:00:00",320701,0.216,72.5,-8.16,93.5,3.779912,0.5,856.9783,0.5,58.75,2.632,197,2.223,2.96,11.49874,3.029,52.66,60.5,33.95,35.79
"2017-12-27 16:10:00",320702,0.182,344.1,-8.19,93.1,3.18221,0,857.1701,0,59.58,2.624,192,2.186,2.964,10.15673,3.178,52.72,60.5,33.96,35.79
"2017-12-27 16:20:00",320703,0.46,319.5,-8.25,92.9,2.253972,0,857.2165,0.5,59.24,2.627,206,2.147,2.971,6.872504,3.038,52.66,60.5,33.95,35.79
"2017-12-27 16:30:00",320704,0.304,334.6,-8.14,92.6,1.097538,0.5,857.2777,0,60.45,2.615,199,2.126,2.985,3.455383,3.155,52.66,60.5,33.95,35.79
"2017-12-27 16:40:00",320705,0.192,16.54,-8.16,92.8,0.6491116,0,857.4342,0,60.61,2.613,198,2.132,2.995,1.760014,2.689,52.66,60.5,33.95,35.79
"2017-12-27 16:50:00",320706,0.391,53.87,-8.18,92.8,0.2478511,0.5,857.5212,0.5,60.5,2.614,200,2.141,2.984,0.5803683,2.386,52.72,60.44,33.96,35.78
"2017-12-27 17:00:00",320707,0.559,26.2,-8.18,92.9,0.1573693,0,857.7291,0,60.05,2.619,204,2.161,2.971,0.1327672,0.546,52.66,60.5,33.95,35.79
"2017-12-27 17:10:00",320708,0.497,290,-8.15,93.1,0,0,858.0582,0,60.21,2.617,200,2.187,3.01,0.01138013,0,52.66,60.5,33.95,35.79
"2017-12-27 17:20:00",320709,0.471,270.5,-8.1,93,0,0.5,858.2205,0.5,62.51,2.594,227,2.192,2.991,0.01138018,0,52.72,60.44,33.96,35.78
"2017-12-27 17:30:00",320710,0.566,20.48,-8.09,92.8,0,0,858.3734,0.5,62.08,2.598,189,2.193,2.985,0.003793421,0,52.66,60.44,33.95,35.78
"2017-12-27 17:40:00",320711,0.714,257.7,-8.11,92.7,0,0.5,858.5423,0,63.1,2.588,178,2.194,2.977,0,0,52.66,60.5,33.95,35.79
"2017-12-27 17:50:00",320712,0.565,190,-8.18,92.9,0.003934314,0,858.6161,0,63.1,2.588,186,2.194,2.973,0.003793427,0.016,52.66,60.5,33.95,35.79
"2017-12-27 18:00:00",320713,0.322,324.4,-8.24,93.4,0.08262058,0,858.8123,0,63.26,2.587,194,2.193,2.974,0,0,52.66,60.44,33.95,35.78
"2017-12-27 18:10:00",320714,0.595,12.93,-8.4,93.9,0.2360588,0.5,858.9304,0.5,63.33,2.587,170,2.193,2.974,0,0,52.66,60.44,33.95,35.78
"2017-12-27 18:20:00",320715,0.648,14.51,-8.5,93.3,0.2360588,0,859.0927,0,63.47,2.586,192,2.197,2.979,0,0,52.66,60.44,33.95,35.78
"2017-12-27 18:30:00",320716,0.484,279.3,-8.58,93.1,0.2360588,0,859.2824,0,63.35,2.588,192,2.151,2.978,0,0,52.66,60.5,33.95,35.79
"2017-12-27 18:40:00",320717,0.366,136.2,-8.67,93.1,0.2360588,0.5,859.3289,0,63.18,2.59,190,2.15,2.996,0,0,52.66,60.44,33.95,35.78
"2017-12-27 18:50:00",320718,0.356,50.3,-8.74,92.6,0.2360588,0,859.3309,0,63.1,2.591,192,2.154,3.012,0,0,52.66,60.44,33.95,35.78
"2017-12-27 19:00:00",320719,0.253,142.4,-8.76,92.5,0.1416353,0,859.4848,0,62.78,2.594,172,2.151,3.015,0,0,52.66,60.44,33.95,35.78
"2017-12-27 19:10:00",320720,0.188,244.6,-8.76,92.5,0,0,859.586,0,62.73,2.595,193,2.151,3.015,0,0,52.66,60.5,33.95,35.79
"2017-12-27 19:20:00",320721,0.144,15.55,-8.84,93,0,0,859.586,0,62.65,2.596,192,2.151,3.013,0,0,52.66,60.44,33.95,35.78
"2017-12-27 19:30:00",320722,0.292,168.2,-8.85,92.8,0,0,859.586,0,62.69,2.596,192,2.151,3.012,0,0,52.66,60.44,33.95,35.78
"2017-12-27 19:40:00",320723,0.159,220,-8.82,92.6,0,0,859.586,0,62.68,2.595,191,2.152,3.019,0,0,52.66,60.44,33.95,35.78
"2017-12-27 19:50:00",320724,0.104,169.2,-8.75,92.3,0,0,859.586,0,62.62,2.596,197,2.165,3.031,0,0,52.66,60.44,33.95,35.78
"2017-12-27 20:00:00",320725,0.197,333.5,-8.78,92.2,0,0,859.5797,0.5,63.36,2.588,194,2.157,3.033,0,0,52.66,60.44,33.95,35.78
"2017-12-27 20:10:00",320726,0.265,209.6,-8.74,92.3,0,0.5,859.5839,0.5,63.57,2.586,181,2.17,3.033,0.08346587,0,52.66,60.44,33.95,35.78
"2017-12-27 20:20:00",320727,0.2,185,-8.68,92.5,0,0,859.6913,0,63.53,2.586,184,2.159,3.038,0.2124608,0,52.66,60.44,33.95,35.78
"2017-12-27 20:30:00",320728,0.14,77.76,-8.64,92.6,0,0,859.8436,0,64.02,2.581,172,2.148,3.039,0.2048756,0,52.66,60.44,33.95,35.78
"2017-12-27 20:40:00",320729,0.303,307.9,-8.66,93.1,0,0.5,859.86,0,64.26,2.579,183,2.145,3.038,0.07208674,0,52.66,60.44,33.95,35.78
"2017-12-27 20:50:00",320730,0.182,331.3,-8.67,93.1,0,0,860.0307,0,64.02,2.581,195,2.14,3.04,0.003794193,0,52.6,60.44,33.94,35.78
"2017-12-27 21:00:00",320731,0.29,279.8,-8.65,93,0,0,860.126,0.5,62.68,2.595,197,2.134,3.053,0,0,52.6,60.44,33.94,35.78
"2017-12-27 21:10:00",320732,0.107,294.8,-8.63,93,0,0.5,860.1591,0,64.17,2.579,200,2.132,3.044,0.04173612,0,52.66,60.44,33.95,35.78
"2017-12-27 21:20:00",320733,0.32,242.9,-8.62,92.8,0,0,860.1238,0.5,65.27,2.568,272,2.128,3.051,0,0,52.66,60.44,33.95,35.78
"2017-12-27 21:30:00",320734,0.298,43.98,-8.66,92.8,0,0,860.262,0,64.91,2.572,195,2.141,3.072,0,0,52.66,60.44,33.95,35.78
"2017-12-27 21:40:00",320735,0.32,86.5,-8.64,93,0,0.5,860.3838,0,64.79,2.573,195,2.16,3.09,0,0,52.66,60.44,33.95,35.78
"2017-12-27 21:50:00",320736,0.451,330.5,-8.69,93.2,0,0,860.4816,0,64.69,2.574,192,2.165,3.098,0,0,52.6,60.44,33.94,35.78
"2017-12-27 22:00:00",320737,0.417,302.1,-8.67,93.1,0,0,860.5638,0,64.63,2.575,193,2.169,3.101,0,0,52.66,60.44,33.95,35.78
"2017-12-27 22:10:00",320738,0.833,290.4,-8.69,93.1,0,0,860.6478,0,64.44,2.577,192,2.162,3.1,0,0,52.66,60.44,33.95,35.78
"2017-12-27 22:20:00",320739,0.576,51.95,-8.67,93.1,0,0,860.6687,0,64.51,2.576,180,2.18,3.092,0,0,52.6,60.44,33.94,35.78
"2017-12-27 22:30:00",320740,0.488,71.07,-8.65,92.8,0.007871317,0,860.7047,0,64.22,2.579,190,2.188,3.085,0,0,52.66,60.44,33.95,35.78
"2017-12-27 22:40:00",320741,0.408,17.57,-8.68,92.8,0,0,860.8685,0,64.14,2.58,172,2.185,3.083,0,0,52.66,60.44,33.95,35.78
"2017-12-27 22:50:00",320742,0.642,37.38,-8.68,93,0,0,861.014,0,64.34,2.578,171,2.187,3.086,0.01897362,0,52.66,60.44,33.95,35.78
"2017-12-27 23:00:00",320743,0.474,98.1,-8.69,93.4,0,0,861.1617,0,64.36,2.578,173,2.192,3.063,0,0,52.6,60.44,33.94,35.78
"2017-12-27 23:10:00",320744,0.63,43.54,-8.68,92.9,0,0,860.9639,0,64.51,2.576,171,2.192,3.078,0,0,52.66,60.44,33.95,35.78
"2017-12-27 23:20:00",320745,0.33,38.09,-8.68,92.4,0,0,860.8184,0,64.83,2.573,192,2.191,3.071,0,0,52.66,60.44,33.95,35.78
"2017-12-27 23:30:00",320746,0.314,100.4,-8.72,92.5,0,0,860.8669,0,64.71,2.574,170,2.197,3.051,0,0,52.66,60.44,33.95,35.78
"2017-12-27 23:40:00",320747,0.169,7.822,-8.72,93.1,0,0,860.8522,0,64.65,2.575,192,2.197,3.034,0.09107336,0,52.66,60.44,33.95,35.78
"2017-12-27 23:50:00",320748,0.302,20.3,-8.69,93,0,0,860.8664,0,64.38,2.578,194,2.197,3.029,0.1252259,0,52.66,60.38,33.95,35.77
